Gunnison, CO

4:06 PM MDT on July 26, 2017 (GMT -0600)
Gunnison County

Weather History for KGUC - May, 2014

Change the Weather History Date:

Tuesday, May 13, 2014

  Actual Average Record
Temperature  
Mean Temperature 32 °F -  
Max Temperature 44 °F 62 °F 72 °F (2017)
Min Temperature 19 °F 29 °F 19 °F (2014)
Degree Days  
Heating Degree Days 34    
Moisture  
Dew Point 17 °F    
Average Humidity 60    
Maximum Humidity 93    
Minimum Humidity 25    
Precipitation  
Precipitation 0.00 in - - ()
Sea Level Pressure  
Sea Level Pressure 30.42 in    
Wind  
Wind Speed 4 mph (North)    
Max Wind Speed 16 mph    
Max Gust Speed 24 mph    
Visibility 10 miles    
Events      
Averages and records for this station are not official NWS values.
T = Trace of Precipitation, MM = Missing Value Source: NWS Daily Summary

Daily Weather History Graph

Daily Weather History Graph

Search for Another Location

Airport or City:

Trip Planner

Search our weather history database for the weather conditions in past years. The results will help you decide how hot, cold, wet, or windy it might be!

Date:

Astronomy

May. 13, 2014 Rise Set
Actual Time 5:57 AM MDT 8:10 PM MDT
Civil Twilight 5:28 AM MDT 8:40 PM MDT
Nautical Twilight 4:51 AM MDT 9:17 PM MDT
Astronomical Twilight 4:12 AM MDT 9:56 PM MDT
Moon 7:16 PM MDT (5/13) 5:15 AM MDT (5/13)
Length of Visible Light 15h 12m
Length of Day
14h 13m
Waxing Gibbous, 99% of the Moon is Illuminated
May 13
Waxing Gibbous
May 14
Full
May 21
Last Quarter
May 28
New
Jun 5
First Quarter

Hourly Weather History & Observations

Time (MDT) Temp. Windchill Dew Point Humidity Pressure Visibility Wind Dir Wind Speed Gust Speed Precip Events Conditions
12:15 AM 26.6 °F - 21.2 °F 80% 30.30 in 10.0 mi Calm Calm - N/A   Overcast
12:35 AM 26.6 °F - 23.0 °F 86% 30.31 in 10.0 mi Calm Calm - N/A   Mostly Cloudy
12:55 AM 26.6 °F - 21.2 °F 80% 30.31 in 10.0 mi North - - N/A   Clear
1:35 AM 24.8 °F 20.5 °F 19.4 °F 80% 30.32 in 10.0 mi East 3.5 mph - N/A   Clear
1:55 AM 23.0 °F 18.4 °F 19.4 °F 86% 30.32 in 10.0 mi ENE 3.5 mph - N/A   Clear
2:15 AM 24.8 °F 20.5 °F 19.4 °F 80% 30.32 in 10.0 mi NNE 3.5 mph - N/A   Clear
2:35 AM 24.8 °F 20.5 °F 21.2 °F 86% 30.32 in 10.0 mi NNE 3.5 mph - N/A   Clear
2:55 AM 24.8 °F - 19.4 °F 80% 30.32 in 10.0 mi Calm Calm - N/A   Clear
3:15 AM 24.8 °F 19.1 °F 19.4 °F 80% 30.32 in 10.0 mi East 4.6 mph - N/A   Clear
3:35 AM 23.0 °F - 21.2 °F 93% 30.33 in 10.0 mi Calm Calm - N/A   Clear
3:55 AM 23.0 °F - 19.4 °F 86% 30.34 in 10.0 mi Calm Calm - N/A   Clear
4:15 AM 21.2 °F 16.4 °F 17.6 °F 86% 30.34 in 9.0 mi ENE 3.5 mph - N/A   Clear
4:35 AM 19.4 °F 14.3 °F 15.8 °F 86% 30.35 in 10.0 mi East 3.5 mph - N/A   Clear
4:55 AM 21.2 °F 12.6 °F 17.6 °F 86% 30.35 in 10.0 mi ENE 6.9 mph - N/A   Clear
5:15 AM 19.4 °F 14.3 °F 17.6 °F 93% 30.35 in 10.0 mi NNE 3.5 mph - N/A   Partly Cloudy
5:35 AM 21.2 °F 14.9 °F 15.8 °F 80% 30.36 in 10.0 mi NE 4.6 mph - N/A   Clear
5:55 AM 19.4 °F 12.8 °F 14.0 °F 80% 30.37 in 10.0 mi ENE 4.6 mph - N/A   Scattered Clouds
6:15 AM 19.4 °F 11.5 °F 15.8 °F 86% 30.38 in 10.0 mi ENE 5.8 mph - N/A   Partly Cloudy
7:15 AM 19.4 °F 12.8 °F 12.2 °F 74% 30.41 in 10.0 mi ENE 4.6 mph - N/A   Clear
7:35 AM 19.4 °F - 15.8 °F 86% 30.41 in 10.0 mi Calm Calm - N/A   Clear
7:55 AM 19.4 °F 12.8 °F 15.8 °F 86% 30.42 in 10.0 mi East 4.6 mph - N/A   Clear
8:15 AM 19.4 °F 14.3 °F 15.8 °F 86% 30.43 in 10.0 mi East 3.5 mph - N/A   Clear
8:55 AM 21.2 °F - 15.8 °F 80% 30.44 in 10.0 mi Calm Calm - N/A   Clear
10:35 AM 26.6 °F - 19.4 °F 74% 30.45 in 10.0 mi Calm Calm - N/A   Clear
10:55 AM 30.2 °F - 24.8 °F 80% 30.45 in 10.0 mi Calm Calm - N/A   Partly Cloudy
11:35 AM 32.0 °F 28.7 °F 21.2 °F 64% 30.44 in 10.0 mi West 3.5 mph - N/A   Clear
11:55 AM 33.8 °F 29.6 °F 23.0 °F 65% 30.44 in 10.0 mi West 4.6 mph - N/A   Clear
12:15 PM 35.6 °F 30.7 °F 21.2 °F 56% 30.45 in 10.0 mi WSW 5.8 mph - N/A   Clear
12:35 PM 35.6 °F 29.2 °F 21.2 °F 56% 30.44 in 10.0 mi West 8.1 mph - N/A   Clear
12:55 PM 37.4 °F 31.4 °F 19.4 °F 48% 30.44 in 10.0 mi West 8.1 mph - N/A   Clear
1:15 PM 37.4 °F 29.8 °F 21.2 °F 52% 30.45 in 10.0 mi NW 11.5 mph - N/A   Partly Cloudy
1:35 PM 33.8 °F 30.8 °F 21.2 °F 60% 30.45 in 8.0 mi NNW 3.5 mph - N/A   Mostly Cloudy
1:55 PM 35.6 °F 31.7 °F 23.0 °F 60% 30.44 in 10.0 mi South 4.6 mph - N/A   Partly Cloudy
2:15 PM 39.2 °F 33.0 °F 23.0 °F 52% 30.44 in 10.0 mi SSW 9.2 mph - N/A   Clear
2:35 PM 39.2 °F 37.0 °F 21.2 °F 49% 30.43 in 10.0 mi South 3.5 mph - N/A   Partly Cloudy
2:55 PM 41.0 °F 35.8 °F 21.2 °F 45% 30.42 in 10.0 mi West 8.1 mph - N/A   Partly Cloudy
3:15 PM 42.8 °F 38.0 °F 21.2 °F 42% 30.42 in 10.0 mi WSW 8.1 mph - N/A   Partly Cloudy
3:35 PM 42.8 °F 37.0 °F 12.2 °F 29% 30.41 in 10.0 mi NW 10.4 mph - N/A   Mostly Cloudy
3:55 PM 44.6 °F 37.4 °F 15.8 °F 31% 30.41 in 10.0 mi NW 16.1 mph 20.7 mph N/A   Scattered Clouds
4:15 PM 44.6 °F 38.4 °F 12.2 °F 27% 30.41 in 10.0 mi NW 12.7 mph - N/A   Clear
4:35 PM 44.6 °F 38.8 °F 12.2 °F 27% 30.41 in 10.0 mi NNW 11.5 mph 16.1 mph N/A   Clear
4:55 PM 44.6 °F 37.4 °F 12.2 °F 27% 30.41 in 10.0 mi NNW 16.1 mph 21.9 mph N/A   Clear
5:15 PM 44.6 °F 38.8 °F 10.4 °F 25% 30.42 in 10.0 mi NNW 11.5 mph 24.2 mph N/A   Clear
5:35 PM 44.6 °F 38.1 °F 10.4 °F 25% 30.42 in 10.0 mi NNW 13.8 mph 21.9 mph N/A   Partly Cloudy
5:55 PM 42.8 °F 35.4 °F 12.2 °F 29% 30.43 in 10.0 mi NNW 15.0 mph 21.9 mph N/A   Scattered Clouds
6:15 PM 42.8 °F 37.0 °F 12.2 °F 29% 30.43 in 10.0 mi NNW 10.4 mph 20.7 mph N/A   Partly Cloudy
6:35 PM 42.8 °F 37.0 °F 10.4 °F 27% 30.43 in 10.0 mi North 10.4 mph - N/A   Clear
6:55 PM 42.8 °F 37.5 °F 10.4 °F 27% 30.43 in 10.0 mi North 9.2 mph - N/A   Clear
7:15 PM 42.8 °F 37.0 °F 10.4 °F 27% 30.44 in 10.0 mi North 10.4 mph - N/A   Partly Cloudy
7:35 PM 41.0 °F 34.7 °F 12.2 °F 31% 30.44 in 10.0 mi WNW 10.4 mph - N/A   Mostly Cloudy
7:55 PM 39.2 °F 34.2 °F 14.0 °F 36% 30.45 in 10.0 mi WNW 6.9 mph - N/A   Partly Cloudy
8:15 PM 37.4 °F 32.8 °F 14.0 °F 38% 30.46 in 10.0 mi NNW 5.8 mph - N/A   Clear
8:55 PM 35.6 °F 28.6 °F 17.6 °F 48% 30.47 in 10.0 mi NNW 9.2 mph - N/A   Clear
9:15 PM 35.6 °F 29.9 °F 17.6 °F 48% 30.48 in 10.0 mi North 6.9 mph - N/A   Clear
9:35 PM 35.6 °F 31.7 °F 17.6 °F 48% 30.49 in 10.0 mi North 4.6 mph - N/A   Clear
9:55 PM 33.8 °F 29.6 °F 17.6 °F 52% 30.50 in 10.0 mi NNE 4.6 mph - N/A   Clear
10:15 PM 33.8 °F - 19.4 °F 56% 30.51 in 10.0 mi Calm Calm - N/A   Clear
10:35 PM 33.8 °F 28.6 °F 19.4 °F 56% 30.52 in 10.0 mi WNW 5.8 mph - N/A   Clear
10:55 PM 33.8 °F 30.8 °F 19.4 °F 56% 30.52 in 10.0 mi North 3.5 mph - N/A   Clear
11:15 PM 32.0 °F 28.7 °F 19.4 °F 60% 30.53 in 10.0 mi North 3.5 mph - N/A   Clear
11:35 PM 30.2 °F 26.7 °F 19.4 °F 64% 30.52 in 10.0 mi SSE 3.5 mph - N/A   Clear
11:55 PM 30.2 °F - 19.4 °F 64% 30.53 in 10.0 mi Calm Calm - N/A   Clear